This is the latest recevied weather packets stored in our database for station/object KA8OAD-10. If no packets are shown the sender has not sent any weather packets the latest 10 day(s).
| Time | Temp. | Humidity | Pressure | Rain* | Wind** | Luminosity | Snow |
|---|---|---|---|---|---|---|---|
| 1778043750 | 9.44° C | 92% | 1006.5 hPa | 0.76 mm | - | 0 W/m² | - |
| 1778043449 | 9.44° C | 92% | 1006.6 hPa | 1.27 mm | - | 0 W/m² | - |
| 1778043152 | 9.44° C | 92% | 1006.7 hPa | 0.76 mm | - | 0 W/m² | - |
| 1778042852 | 9.44° C | 92% | 1006.7 hPa | 1.27 mm | - | 0 W/m² | - |
| 1778042251 | 9.44° C | 92% | 1006.7 hPa | 1.27 mm | - | 0 W/m² | - |
| 1778041950 | 9.44° C | 92% | 1006.8 hPa | 1.27 mm | - | 0 W/m² | - |
| 1778041650 | 9.44° C | 92% | 1006.7 hPa | 1.27 mm | - | 0 W/m² | - |
| 1778041353 | 9.44° C | 92% | 1006.8 hPa | 1.27 mm | - | 0 W/m² | - |
| 1778041053 | 9.44° C | 92% | 1006.8 hPa | 1.27 mm | - | 0 W/m² | - |
| 1778040452 | 9.44° C | 92% | 1006.9 hPa | 1.27 mm | - | 0 W/m² | - |
| 1778039550 | 10° C | 92% | 1007 hPa | 1.27 mm | - | 0 W/m² | - |
| 1778038653 | 10° C | 92% | 1007.1 hPa | 1.27 mm | - | 0 W/m² | - |
| 1778038352 | 10° C | 92% | 1007.1 hPa | 1.27 mm | - | 0 W/m² | - |
| 1778037751 | 10° C | 92% | 1007 hPa | 2.29 mm | - | 0 W/m² | - |
| 1778036552 | 10° C | 91% | 1007.6 hPa | 4.32 mm | - | 0 W/m² | - |
| 1778035951 | 10° C | 91% | 1007.7 hPa | 4.57 mm | - | 0 W/m² | - |
| 1778035651 | 10° C | 91% | 1007.6 hPa | 5.08 mm | - | 0 W/m² | - |
| 1778035051 | 10° C | 91% | 1007.7 hPa | 5.84 mm | - | 0 W/m² | - |
| 1778034753 | 10° C | 91% | 1007.7 hPa | 5.33 mm | - | 0 W/m² | - |
| 1778034453 | 10° C | 90% | 1007.2 hPa | 5.84 mm | - | 0 W/m² | - |
| 1778033852 | 10° C | 90% | 1007 hPa | 5.08 mm | - | 0 W/m² | - |
| 1778033251 | 10° C | 90% | 1006.7 hPa | 5.08 mm | - | 0 W/m² | - |
| 1778032650 | 10° C | 90% | 1007 hPa | 5.08 mm | - | 0 W/m² | - |
| 1778032349 | 10° C | 90% | 1006.8 hPa | 4.57 mm | - | 0 W/m² | - |
| 1778031452 | 10° C | 90% | 1006.8 hPa | 3.81 mm | - | 0 W/m² | - |
* Rain latest hour (hover to see other rain measurements)
** Current wind speed in m/s (hover to see current wind gust speed)